Regional Weather Roundup
Issued by NWS

Home | Current Version | Previous Version | Text Only | Print | Product List | Glossary Off
Versions: 1 2 3 4 5 6 7 8 9 10 11 12 13 14 15 16 17 18 19 20 21 22 23 24 25 26 27 28 29 30 31 32 33 34 35 36 37 38 39 40 41 42 43 44 45 46 47 48 49 50

000
ASUS43 KFSD 280902
RWRSD

WEATHER ROUNDUP FOR SOUTH DAKOTA
NATIONAL WEATHER SERVICE SIOUX FALLS SD
400 AM CDT THU JUL 28 2016

NOTE: "FAIR" INDICATES FEW OR NO CLOUDS BELOW 12,000 FEET WITH NO
SIGNIFICANT WEATHER AND/OR OBSTRUCTIONS TO VISIBILITY.


SDZ001>005-009-010-012>017-281000-
NORTHWEST AND NORTH CENTRAL SOUTH DAKOTA

CITY           SKY/WX    TMP DP  RH WIND       PRES   REMARKS
BUFFALO          N/A     60  59  96 NE8       30.06F
FAITH            N/A     60  57  89 SE7       30.10R
MOBRIDGE       PTCLDY    65  58  78 E12       30.07F
$$

SDZ012>016-024>037-041>051-057-063-072>074-281000-
SOUTHWEST AND SOUTH CENTRAL SOUTH DAKOTA

CITY           SKY/WX    TMP DP  RH WIND       PRES   REMARKS
RAPID CTY ARPT CLOUDY    63  58  83 SW5       30.13R
PIERRE         CLEAR     59  58  96 NE3       30.07S
CUSTER         LGT RAIN  57  54  89 W9        30.31R
ELLSWORTH AFB  CLOUDY    64  60  87 SW7       30.12R
PHILIP         CLEAR     58  57  97 CALM      30.09S
PINE RIDGE     MOCLDY    63  63 100 SW7       30.14F
WINNER         FAIR      61  58  90 NW3       30.09S
$$

SDZ004>011-016>023-039-040-281000-
NORTHEAST SOUTH DAKOTA

CITY           SKY/WX    TMP DP  RH WIND       PRES   REMARKS
ABERDEEN       CLOUDY    62  58  86 N6        30.08F
WATERTOWN      CLOUDY    61  57  87 N6        30.05F
BROOKINGS      CLOUDY    61  58  90 N5        30.04F
SISSETON         N/A     61  58  90 N9        30.04F
$$

SDZ017-020-022-023-036>040-048>070-281000-
SOUTHEAST SOUTH DAKOTA

CITY           SKY/WX    TMP DP  RH WIND       PRES   REMARKS
SIOUX FALLS    CLOUDY    63  58  83 N3        30.03F
HURON          CLEAR     62  59  90 N5        30.05F
CHAMBERLAIN    PTCLDY    66  60  80 NE3       30.07S
MITCHELL       PTCLDY    64  61  90 NW3       30.05F
YANKTON        CLEAR     64  59  82 CALM      30.02S
$$

ABBREVIATIONS USED IN REMARKS
   TC - TEMPERATURE IN CELSIUS
  WCI - WIND CHILL INDEX
   HX - HEAT INDEX
  VSB - VISIBILITY





USA.gov is the U.S. government's official web portal to all federal, state and local government web resources and services.